| time (UTC) | temp F | wind direction | speed knots | gust knots | rain 1hr in | rain 24hr in | rain mn in | humidity % | barometer mb |
| 20260504211513 | 51 | 273 | 5.2 | 13.0 | 0.00 | 0.02 | 0.00 | 64 | 1001.4 |
| 20260504210014 | 50 | 217 | 5.2 | 12.2 | 0.00 | 0.02 | 0.00 | 64 | 1001.5 |
| 20260504204519 | 51 | 227 | 6.1 | 11.3 | 0.00 | 0.03 | 0.00 | 62 | 1001.4 |
| 20260504203013 | 51 | 234 | 3.5 | 10.4 | 0.00 | 0.03 | 0.00 | 62 | 1001.4 |
| 20260504201510 | 50 | 279 | 3.5 | 7.0 | 0.00 | 0.03 | 0.00 | 64 | 1001.5 |
| 20260504200016 | 50 | 237 | 2.6 | 10.4 | 0.00 | 0.03 | 0.00 | 65 | 1001.6 |
| 20260504194514 | 47 | 207 | 5.2 | 11.3 | 0.00 | 0.04 | 0.00 | 67 | 1001.7 |
| 20260504193022 | 48 | 197 | 4.3 | 9.6 | 0.00 | 0.04 | 0.00 | 65 | 1001.8 |
| 20260504191511 | 48 | 263 | 5.2 | 14.8 | 0.00 | 0.05 | 0.00 | 61 | 1001.8 |
| 20260504190015 | 49 | 277 | 4.3 | 11.3 | 0.00 | 0.07 | 0.00 | 57 | 1001.8 |
| 20260504184520 | 49 | 196 | 6.1 | 15.6 | 0.00 | 0.07 | 0.00 | 54 | 1001.7 |
| 20260504183018 | 50 | 267 | 7.0 | 18.2 | 0.00 | 0.08 | 0.00 | 50 | 1001.6 |
| 20260504181520 | 51 | 340 | 4.3 | 15.6 | 0.00 | 0.09 | 0.00 | 44 | 1001.5 |
| 20260504180014 | 52 | 319 | 7.8 | 20.0 | 0.00 | 0.09 | 0.00 | 40 | 1001.4 |
| 20260504174516 | 53 | 269 | 4.3 | 15.6 | 0.00 | 0.09 | 0.00 | 37 | 1000.9 |
| 20260504173022 | 54 | 277 | 7.8 | 18.2 | 0.00 | 0.10 | 0.00 | 35 | 1000.8 |
| 20260504171534 | 55 | 242 | 5.2 | 14.8 | 0.00 | 0.11 | 0.00 | 33 | 1000.7 |
| 20260504081529 | 33 | 313 | 6.1 | 10.4 | 0.00 | 0.35 | 0.00 | 83 | 1001.1 |
| 20260504050021 | 36 | 281 | 5.2 | 11.3 | 0.00 | 0.35 | 0.00 | 85 | 1000.8 |
| 20260504044527 | 37 | 308 | 4.3 | 11.3 | 0.00 | 0.35 | 0.00 | 85 | 1000.9 |
| 20260504043028 | 37 | 5 | 5.2 | 12.2 | 0.00 | 0.35 | 0.00 | 86 | 1000.9 |
| 20260504041530 | 37 | 306 | 7.0 | 14.8 | 0.00 | 0.35 | 0.00 | 86 | 1000.9 |
| 20260504040022 | 38 | 325 | 7.8 | 14.8 | 0.00 | 0.35 | 0.00 | 87 | 1001.0 |
| 20260504034523 | 38 | 296 | 6.1 | 14.8 | 0.00 | 0.35 | 0.35 | 88 | 1000.9 |
| 20260504033027 | 39 | 297 | 5.2 | 9.6 | 0.00 | 0.35 | 0.35 | 91 | 1000.8 |
| 20260504031528 | 39 | 316 | 2.6 | 7.0 | 0.00 | 0.35 | 0.35 | 93 | 1000.9 |
| 20260504030027 | 39 | 348 | 2.6 | 9.6 | 0.00 | 0.35 | 0.35 | 94 | 1000.9 |
| 20260504024521 | 39 | 339 | 2.6 | 6.1 | 0.00 | 0.35 | 0.35 | 94 | 1000.9 |
| 20260504023024 | 39 | 321 | 2.6 | 4.3 | 0.00 | 0.35 | 0.35 | 94 | 1000.9 |
| 20260504021508 | 40 | 290 | 1.7 | 4.3 | 0.00 | 0.35 | 0.35 | 94 | 1000.9 |
| 20260504020017 | 40 | 311 | 2.6 | 7.8 | 0.00 | 0.35 | 0.35 | 93 | 1001.0 |
| 20260504014520 | 40 | 347 | 3.5 | 8.7 | 0.00 | 0.35 | 0.35 | 93 | 1001.2 |
| 20260504013023 | 40 | 360 | 2.6 | 7.0 | 0.00 | 0.35 | 0.35 | 93 | 1001.3 |
| 20260504011524 | 40 | 337 | 4.3 | 7.8 | 0.00 | 0.35 | 0.35 | 93 | 1001.2 |
| 20260504010009 | 40 | 339 | 5.2 | 9.6 | 0.00 | 0.35 | 0.35 | 93 | 1001.0 |
| 20260504004521 | 40 | 343 | 2.6 | 7.8 | 0.00 | 0.35 | 0.35 | 93 | 1001.0 |
| 20260504003020 | 40 | 294 | 3.5 | 7.0 | 0.00 | 0.35 | 0.35 | 93 | 1000.9 |
| 20260504001526 | 40 | 332 | 2.6 | 11.3 | 0.00 | 0.35 | 0.35 | 93 | 1000.7 |
| 20260504000025 | 40 | 333 | 3.5 | 7.8 | 0.00 | 0.35 | 0.35 | 93 | 1000.8 |
| 20260503234525 | 40 | 344 | 4.3 | 9.6 | 0.01 | 0.35 | 0.35 | 93 | 1000.8 |
| 20260503233018 | 40 | 342 | 3.5 | 8.7 | 0.01 | 0.35 | 0.35 | 93 | 1000.9 |
| 20260503231522 | 40 | 13 | 3.5 | 7.8 | 0.01 | 0.35 | 0.35 | 93 | 1000.9 |
| 20260503230028 | 41 | 321 | 3.5 | 7.8 | 0.01 | 0.35 | 0.35 | 92 | 1000.9 |
| 20260503224527 | 41 | 346 | 2.6 | 9.6 | 0.01 | 0.34 | 0.34 | 92 | 1000.9 |
| 20260503223011 | 41 | 360 | 3.5 | 8.7 | 0.01 | 0.34 | 0.34 | 93 | 1001.0 |
| 20260503221522 | 41 | 331 | 4.3 | 7.8 | 0.01 | 0.34 | 0.34 | 93 | 1001.0 |
| 20260503220038 | 41 | 336 | 1.7 | 4.3 | 0.01 | 0.34 | 0.34 | 94 | 1001.2 |
| 20260503214524 | 41 | 10 | 1.7 | 7.0 | 0.01 | 0.33 | 0.33 | 93 | 1001.4 |
| 20260503213027 | 41 | 23 | 2.6 | 10.4 | 0.01 | 0.33 | 0.33 | 93 | 1001.4 |